Temp
63 63 63 63 63 63 63 64 64 64 64 64 64 63 63 63 64 70 79 89 85 81 83 81 81 82 83 78 84 84 66 62 68 70 71 78 74 80 82 76 80 79 72 74 76
63 62 62 62 63 63 63 63 63 63 63 63 63 64 64 63 64 74 86 84 82 82 85 80 83 79 74 76 79 76 65 71 79 77 75 78 77 77 75 74 71 72 76 78 76
62 62 62 62 62 62 63 63 63 63 63 63 63 64 64 62 70 84 83 83 82 82 89 88 86 84 76 76 78 78 71 80 81 82 82 79 77 80 73 69 72 68 72 75 74
62 62 61 62 62 62 62 62 62 62 62 63 64 64 64 60 69 82 82 82 82 87 90 86 84 80 75 78 81 78 83 84 83 84 82 79 81 76 76 75 79 76 76 75 74
61 61 61 61 61 61 62 61 61 61 62 63 64 65 64 67 77 83 83 82 83 86 86 84 80 77 77 79 80 78 81 84 84 84 83 83 76 75 75 79 80 79 77 75 75
61 61 60 60 61 61 61 61 61 61 62 63 64 65 63 65 85 85 85 83 85 84 84 85 82 84 79 79 76 82 82 81 83 81 81 77 75 77 76 79 77 77 75 76 76
60 60 60 60 60 60 60 60 60 61 62 64 65 69 64 75 84 84 83 83 87 86 84 88 88 82 80 76 85 82 75 77 80 80 77 79 72 70 77 78 75 75 75 76 77
59 59 59 59 59 59 59 59 59 62 63 65 66 63 65 83 80 83 82 87 89 87 86 86 89 82 77 82 82 75 73 64 75 78 78 76 61 74 78 76 73 75 76 77 77
59 59 59 59 59 58 58 58 61 64 66 67 59 61 68 83 80 87 87 88 85 84 84 99 87 76 79 72 66 69 64 65 71 77 76 73 64 75 78 77 73 74 75 77 77
59 58 58 58 58 57 57 58 62 63 67 72 77 63 72 75 80 88 83 88 82 82 86 82 75 70 67 66 58 62 61 69 69 75 75 69 66 74 78 77 75 75 75 76 78
58 58 58 57 57 56 54 62 67 64 63 66 66 69 73 80 83 82 86 83 79 78 68 71 69 64 71 71 73 70 66 69 72 78 72 69 67 71 76 77 76 75 75 76 78
58 58 57 57 56 56 51 63 64 66 60 73 73 74 77 77 73 78 80 78 72 69 69 68 64 74 76 74 73 71 68 68 74 78 72 68 69 70 72 75 77 77 77 77 77
58 57 57 56 55 56 58 64 71 63 57 66 70 71 72 77 72 74 77 72 70 66 67 65 70 79 75 72 71 66 66 68 72 73 71 69 63 65 71 72 75 76 80 80 79
57 57 56 54 59 54 64 68 67 66 50 61 64 73 74 78 71 82 82 77 68 69 66 66 74 77 71 71 72 62 75 78 75 69 60 69 55 61 64 67 71 74 75 79 79
57 57 55 53 49 59 70 65 68 69 45 70 68 79 70 71 72 74 80 76 70 71 66 67 68 70 69 74 76 71 78 77 78 65 61 61 56 58 61 65 67 71 74 77 80
57 56 55 52 48 58 61 62 68 53 48 67 72 69 65 65 70 75 75 78 75 68 64 69 73 70 73 77 78 80 72 69 66 64 54 62 61 57 58 67 67 74 77 78 78
55 54 53 57 62 59 61 64 51 46 66 66 65 68 63 62 68 69 68 62 63 54 52 64 67 70 76 69 71 68 59 52 51 54 56 61 57 65 67 69 73 76 77 74 76
53 52 51 55 52 59 63 59 43 60 59 68 67 66 65 66 61 66 64 61 59 59 53 54 56 68 74 71 69 64 61 53 47 48 53 53 54 65 69 72 72 75 76 75 75
52 51 50 57 55 57 60 47 49 55 65 66 64 60 59 66 63 64 57 59 64 64 60 52 56 70 73 73 73 61 59 61 53 46 51 54 60 69 65 69 71 72 74 73 74
50 55 62 61 61 62 55 47 52 63 67 64 56 61 57 61 62 58 59 64 66 69 61 62 55 66 73 72 69 68 68 56 52 46 45 51 52 58 65 67 69 70 72 73 73
55 62 67 62 65 59 51 50 60 69 70 63 60 58 57 58 56 58 59 69 70 71 66 57 56 63 62 61 63 63 57 55 55 51 48 47 52 62 66 71 70 73 74 73 74
53 57 67 66 57 47 50 56 62 69 69 68 66 62 59 60 57 60 62 65 74 70 64 61 55 54 62 65 67 64 65 59 52 51 47 49 55 70 70 70 71 71 72 73 76
53 53 66 68 51 51 55 62 65 66 67 67 66 66 62 59 56 60 63 73 73 69 64 63 53 48 55 57 60 61 61 55 53 50 48 51 56 69 64 67 68 70 71 71 73
54 55 58 58 53 51 53 57 61 71 67 66 63 63 60 57 56 56 61 70 73 71 71 64 50 52 52 55 58 59 63 59 56 49 50 54 62 67 67 66 68 70 71 70 73
51 49 49 50 53 51 50 57 60 59 66 66 63 62 58 51 55 56 60 62 70 69 68 61 52 53 57 60 63 64 66 65 59 58 55 60 61 67 70 66 70 71 70 71 71
48 47 47 46 49 52 50 53 58 61 61 60 59 65 61 53 56 57 55 53 62 66 61 59 55 52 54 62 62 63 66 66 64 62 60 58 60 67 68 67 67 71 72 71 70
47 48 49 46 48 48 49 55 60 61 63 65 64 60 60 61 65 66 62 62 62 60 59 56 53 50 48 55 57 53 64 66 66 65 62 57 64 67 68 69 71 70 73 73 72
MSLP
1015.03 1014.56 1014.19 1013.70 1013.15 1012.62 1012.04 1011.62 1011.15 1010.67 1010.14 1009.54 1008.88 1008.18 1007.71 1007.17 1006.00 1005.50 1004.52 1002.64 1002.83 1003.53 1003.98 1004.46 1004.76 1004.60 1004.90 1004.62 1004.27 1004.08 1005.14 1005.32 1004.95 1005.21 1005.48 1006.02 1006.53 1007.05 1007.35 1007.87 1008.24 1008.98 1009.83 1010.54 1011.53
1015.01 1014.58 1014.11 1013.67 1013.20 1012.58 1012.04 1011.53 1011.14 1010.62 1009.96 1009.40 1008.78 1008.18 1007.73 1007.36 1006.67 1004.51 1002.07 1001.92 1002.36 1003.16 1003.76 1003.89 1003.91 1004.16 1004.33 1003.84 1003.58 1003.70 1004.61 1004.13 1003.65 1004.08 1004.67 1005.28 1005.92 1006.65 1007.53 1008.18 1008.91 1009.29 1009.91 1010.87 1011.61
1015.02 1014.54 1014.07 1013.60 1013.09 1012.57 1011.97 1011.40 1010.95 1010.54 1009.83 1009.36 1008.69 1008.11 1007.65 1007.50 1006.46 1003.17 1001.43 1001.82 1002.34 1002.81 1002.80 1003.08 1002.83 1002.99 1003.05 1002.82 1002.95 1002.89 1003.28 1003.12 1003.37 1003.45 1003.95 1005.13 1005.81 1006.27 1007.53 1008.32 1008.61 1009.07 1009.93 1010.97 1011.56
1015.05 1014.54 1014.02 1013.51 1012.96 1012.44 1011.90 1011.24 1010.72 1010.30 1009.80 1009.18 1008.66 1008.03 1007.61 1007.35 1005.37 1002.34 1001.66 1001.95 1002.26 1002.32 1002.36 1002.26 1002.27 1002.20 1002.54 1002.67 1002.56 1002.75 1002.73 1002.67 1003.07 1003.45 1004.07 1004.93 1005.96 1006.74 1007.27 1007.47 1008.05 1009.14 1009.55 1010.49 1011.26
1015.10 1014.57 1013.94 1013.32 1012.71 1012.06 1011.53 1011.03 1010.41 1010.02 1009.61 1009.06 1008.53 1008.10 1007.47 1006.66 1003.77 1002.14 1002.08 1002.38 1002.48 1002.22 1002.21 1002.16 1002.51 1002.41 1002.40 1002.51 1002.54 1002.82 1003.00 1002.52 1002.92 1003.54 1004.29 1004.79 1005.74 1006.35 1007.30 1007.78 1008.83 1009.67 1010.16 1010.51 1010.94
1015.08 1014.43 1013.86 1013.24 1012.52 1011.82 1011.18 1010.65 1010.16 1009.62 1009.32 1008.91 1008.46 1008.24 1007.78 1005.70 1002.02 1002.01 1001.98 1002.46 1002.54 1002.21 1002.14 1002.14 1002.27 1002.07 1002.22 1002.68 1002.98 1003.19 1003.42 1003.44 1003.48 1003.91 1004.51 1005.35 1006.32 1006.43 1007.81 1008.08 1009.07 1009.73 1010.24 1010.49 1010.48
1014.97 1014.37 1013.75 1013.15 1012.39 1011.60 1010.91 1010.18 1009.66 1009.20 1008.76 1008.61 1008.34 1008.12 1007.40 1003.87 1001.83 1001.97 1002.13 1001.82 1001.84 1001.91 1001.91 1001.75 1001.78 1001.97 1002.20 1002.64 1003.03 1003.55 1004.18 1004.44 1004.37 1004.20 1004.71 1005.44 1006.85 1007.57 1007.95 1008.60 1009.04 1009.53 1009.80 1009.97 1010.08
1014.76 1014.12 1013.50 1012.82 1012.14 1011.37 1010.49 1009.63 1009.00 1008.55 1008.22 1008.11 1008.15 1007.89 1006.16 1002.38 1001.95 1001.76 1001.54 1001.34 1001.35 1001.62 1001.41 1001.40 1001.52 1001.90 1002.26 1002.75 1003.27 1004.27 1004.68 1005.33 1005.02 1004.95 1004.98 1005.61 1007.23 1007.94 1008.28 1008.54 1009.15 1009.40 1009.38 1009.28 1009.41
1014.71 1014.08 1013.34 1012.61 1011.94 1011.08 1010.02 1009.04 1008.30 1007.83 1007.81 1007.93 1008.01 1007.50 1004.84 1002.17 1001.88 1001.12 1000.99 1001.13 1000.96 1001.22 1001.18 1001.18 1001.62 1002.55 1002.95 1003.54 1004.49 1005.07 1005.17 1005.23 1005.18 1005.05 1005.32 1005.75 1007.48 1007.78 1008.17 1008.20 1008.29 1008.46 1008.59 1008.66 1008.92
1014.43 1013.72 1013.09 1012.35 1011.51 1010.65 1009.50 1008.17 1007.65 1007.73 1007.76 1007.80 1007.42 1007.24 1004.09 1002.96 1002.20 1001.38 1000.83 1000.87 1001.15 1001.38 1001.45 1001.60 1002.64 1003.35 1004.06 1004.39 1004.90 1005.21 1005.58 1005.33 1005.01 1004.70 1004.89 1006.05 1006.80 1007.10 1007.28 1007.39 1007.61 1007.99 1008.23 1007.95 1008.02
1014.27 1013.52 1012.73 1012.06 1011.37 1010.65 1009.39 1007.83 1007.98 1007.83 1007.29 1006.74 1006.38 1005.69 1004.25 1003.17 1002.01 1001.44 1000.97 1001.07 1001.45 1001.92 1002.59 1002.77 1003.57 1004.14 1003.96 1004.32 1004.12 1004.44 1004.80 1004.74 1004.31 1004.10 1005.12 1005.63 1006.25 1006.58 1006.63 1006.83 1007.29 1007.55 1007.53 1007.49 1007.34
1014.04 1013.35 1012.57 1011.81 1011.12 1010.58 1010.33 1009.54 1009.22 1009.15 1007.73 1005.72 1005.01 1004.67 1003.67 1003.75 1003.56 1001.89 1001.26 1001.48 1001.97 1002.50 1002.86 1003.52 1003.42 1003.21 1003.90 1004.07 1004.21 1004.19 1004.45 1004.45 1004.37 1004.40 1004.96 1005.88 1006.22 1006.18 1006.14 1005.76 1006.08 1006.27 1006.54 1006.74 1006.85
1013.88 1013.16 1012.38 1011.47 1010.71 1010.34 1010.27 1009.03 1008.30 1008.20 1007.99 1005.25 1004.25 1003.55 1003.04 1003.33 1003.18 1002.09 1001.57 1001.57 1002.06 1002.78 1003.10 1003.51 1002.98 1002.84 1003.14 1003.60 1003.77 1003.64 1003.71 1003.83 1004.34 1004.64 1005.33 1005.90 1006.29 1006.33 1006.00 1005.90 1005.67 1005.80 1005.99 1005.88 1005.98
1013.55 1012.99 1012.35 1011.23 1010.68 1010.85 1009.52 1008.35 1007.97 1007.68 1007.78 1005.21 1003.68 1002.32 1002.25 1002.17 1002.26 1001.42 1001.30 1001.79 1002.33 1002.83 1003.48 1003.32 1002.67 1002.63 1002.74 1002.89 1003.23 1003.18 1002.67 1003.28 1004.06 1004.91 1005.81 1006.05 1006.70 1006.06 1006.06 1005.84 1005.62 1005.29 1005.28 1004.89 1005.49
1013.26 1012.73 1012.39 1012.17 1011.85 1010.81 1008.91 1008.07 1007.51 1007.42 1006.92 1003.97 1002.66 1001.68 1001.84 1001.98 1001.45 1001.11 1001.06 1001.56 1002.38 1002.88 1003.58 1003.11 1002.48 1002.30 1002.37 1002.23 1002.67 1002.32 1002.76 1002.93 1003.63 1004.80 1005.86 1006.80 1007.52 1005.71 1005.57 1005.10 1004.61 1004.21 1004.25 1004.43 1004.49
1012.83 1012.42 1012.24 1012.22 1011.85 1009.59 1008.68 1008.22 1007.74 1008.21 1006.06 1003.74 1002.42 1002.02 1002.10 1001.87 1001.63 1001.30 1001.39 1001.63 1002.32 1003.06 1003.45 1003.23 1002.54 1002.32 1001.87 1001.71 1002.30 1002.31 1002.94 1003.43 1003.96 1005.20 1006.32 1006.15 1006.86 1005.93 1005.23 1003.47 1003.55 1003.42 1003.32 1003.87 1004.43
1012.15 1011.85 1012.04 1011.60 1010.50 1009.27 1008.72 1008.69 1009.18 1007.98 1005.92 1004.74 1003.49 1002.92 1002.49 1002.55 1002.17 1002.05 1002.13 1002.56 1003.17 1003.88 1004.13 1003.59 1002.65 1002.00 1001.73 1001.71 1002.11 1002.46 1003.72 1004.65 1005.77 1006.38 1006.17 1005.72 1006.70 1004.55 1003.31 1002.32 1002.13 1002.05 1002.57 1003.39 1004.03
1011.29 1010.75 1010.86 1010.44 1009.80 1009.40 1009.19 1009.50 1009.44 1008.02 1006.63 1005.15 1004.34 1003.52 1003.40 1003.16 1002.90 1002.54 1002.55 1003.31 1003.65 1004.05 1004.88 1004.47 1003.21 1002.04 1001.34 1001.39 1001.74 1002.54 1003.65 1004.93 1005.63 1006.33 1006.39 1006.54 1005.57 1003.20 1002.63 1001.63 1001.63 1001.70 1002.17 1002.90 1003.71
1010.71 1010.72 1010.80 1009.35 1009.48 1010.01 1009.97 1010.47 1009.66 1008.26 1006.83 1005.85 1004.73 1004.46 1004.42 1003.86 1003.66 1003.48 1003.19 1003.42 1003.43 1003.52 1004.26 1004.51 1003.46 1001.80 1001.34 1001.14 1001.53 1002.50 1003.42 1003.98 1005.44 1006.80 1006.74 1005.80 1004.48 1002.56 1002.17 1001.81 1001.92 1002.10 1002.51 1002.92 1003.27
1011.50 1010.87 1009.92 1009.06 1009.16 1009.59 1010.34 1010.57 1009.55 1008.02 1006.82 1006.06 1005.49 1005.16 1005.28 1004.94 1004.68 1004.21 1003.72 1003.25 1003.30 1003.22 1003.22 1003.42 1003.55 1002.12 1001.11 1001.09 1001.41 1001.85 1002.69 1004.11 1005.52 1006.91 1007.17 1006.09 1005.14 1003.33 1002.17 1001.75 1001.91 1002.36 1002.20 1002.43 1003.12
1011.60 1011.07 1009.76 1009.24 1009.30 1010.29 1011.17 1010.52 1008.86 1007.08 1006.47 1005.96 1005.43 1005.34 1005.58 1005.60 1005.40 1004.87 1004.51 1003.48 1003.28 1002.94 1003.00 1003.34 1003.74 1002.57 1001.92 1001.62 1001.66 1002.13 1002.73 1004.13 1005.48 1006.19 1006.63 1006.01 1004.21 1001.90 1001.25 1000.52 1001.06 1001.27 1001.66 1002.09 1002.60
1012.07 1011.81 1010.01 1009.73 1010.47 1011.57 1011.20 1009.97 1008.44 1006.82 1005.80 1005.42 1005.43 1005.41 1005.64 1005.85 1005.88 1005.39 1005.21 1004.36 1003.72 1003.63 1003.44 1003.31 1003.18 1003.32 1002.12 1001.27 1001.06 1001.45 1001.99 1003.27 1005.17 1006.08 1006.13 1005.33 1002.98 1000.51 999.94 999.93 1000.56 1000.96 1001.36 1001.65 1002.21
1013.18 1012.41 1010.30 1010.09 1011.48 1011.95 1010.94 1009.77 1008.52 1007.19 1006.52 1005.83 1005.78 1005.86 1005.98 1006.34 1006.23 1006.01 1005.65 1004.58 1004.26 1003.94 1004.02 1003.43 1003.76 1003.75 1002.74 1002.25 1001.65 1001.34 1001.65 1002.37 1003.42 1004.33 1004.85 1004.53 1002.22 1000.29 1000.14 1000.03 1000.16 1000.55 1001.13 1001.62 1002.19
1013.74 1013.46 1012.12 1011.69 1012.25 1012.29 1011.75 1010.54 1009.12 1007.51 1007.09 1006.71 1006.88 1006.49 1006.70 1007.19 1007.13 1006.73 1006.20 1005.09 1004.62 1004.48 1003.85 1003.89 1004.37 1004.28 1003.46 1002.28 1001.32 1001.22 1001.36 1001.67 1002.21 1003.86 1003.56 1002.76 1001.43 1000.51 1000.03 1000.03 1000.02 1000.22 1000.52 1001.36 1002.16
1014.63 1015.44 1015.03 1013.93 1013.34 1013.01 1012.18 1011.22 1010.06 1008.92 1007.94 1007.45 1007.41 1007.58 1007.62 1007.71 1007.61 1007.35 1006.72 1006.02 1005.12 1004.88 1004.64 1005.04 1005.27 1004.62 1003.53 1002.66 1001.57 1000.60 1000.52 1000.82 1001.26 1001.50 1002.02 1001.13 1001.24 999.97 999.43 999.04 998.86 999.31 1000.55 1001.37 1002.16
1016.11 1016.42 1015.67 1015.10 1014.23 1013.46 1012.58 1011.88 1010.83 1009.74 1009.00 1008.53 1008.38 1007.84 1007.75 1007.98 1008.21 1007.80 1007.36 1006.72 1006.26 1005.50 1005.60 1005.56 1005.67 1005.35 1004.31 1002.94 1002.11 1001.20 1000.16 1000.13 1000.15 1000.47 1000.86 1000.72 1000.35 999.18 998.71 998.59 999.14 998.84 999.50 1000.39 1001.28
1016.97 1016.74 1016.39 1015.81 1014.99 1014.19 1013.50 1012.55 1011.43 1010.74 1009.41 1008.92 1008.62 1008.20 1007.85 1007.82 1007.90 1007.33 1007.04 1006.84 1006.56 1006.55 1006.28 1006.18 1006.34 1006.37 1005.46 1003.57 1002.64 1001.64 1000.00 999.49 999.99 1000.52 1000.80 1001.02 1000.40 999.74 999.11 998.68 998.56 998.78 999.35 999.68 1000.26
Wind_Speed
19 19 19 19 19 19 20 20 19 19 19 19 19 19 19 19 19 4 5 8 6 20 13 7 4 3 5 4 5 4 5 2 5 6 6 10 5 2 6 8 3 3 6 9 15
20 20 20 19 19 20 20 20 19 19 19 20 19 18 17 16 4 8 11 9 16 19 7 8 4 8 4 4 5 4 4 6 6 6 7 13 10 10 6 4 4 7 13 16 14
20 21 20 20 20 20 20 20 20 19 19 19 18 18 16 10 4 8 9 11 16 15 5 4 4 6 4 1 2 3 6 4 3 5 9 10 12 5 12 2 6 18 20 17 12
21 21 22 22 22 21 20 21 20 19 18 19 18 17 18 2 4 1 6 10 12 7 2 3 5 6 3 4 3 4 4 3 6 6 4 7 10 8 2 4 11 15 20 18 15
21 22 22 23 23 23 22 21 21 19 18 18 17 15 5 4 11 4 7 9 6 3 2 2 3 2 6 2 1 4 2 6 9 8 7 8 10 8 5 12 13 13 15 15 12
22 21 21 22 23 23 22 21 20 21 18 16 14 12 2 3 2 9 6 5 3 4 3 4 2 3 3 2 2 6 4 5 6 11 6 11 11 5 6 15 14 14 14 12 13
22 22 22 22 24 24 24 23 23 21 19 13 10 3 1 16 1 6 3 4 5 4 3 4 4 3 3 3 4 6 5 5 4 3 4 6 4 4 14 15 17 15 14 14 15
23 23 23 24 24 24 24 24 25 22 16 9 5 1 9 6 4 10 3 5 5 6 4 1 4 2 1 1 6 3 5 3 3 1 2 6 2 11 13 14 14 15 14 15 16
22 23 24 24 23 23 25 27 25 12 2 5 3 2 12 9 4 7 6 5 1 1 4 1 4 2 3 4 5 6 2 2 4 2 3 4 4 9 14 15 16 17 17 16 15
22 22 22 23 23 24 27 25 10 5 1 4 2 4 6 3 5 8 2 4 1 3 7 4 6 4 5 5 4 4 3 5 2 6 5 3 6 16 18 17 18 16 15 16 16
22 23 23 23 23 22 16 5 7 5 2 5 5 5 6 9 5 2 5 5 3 6 2 2 4 7 12 6 6 2 4 5 7 7 2 7 9 15 18 16 14 11 12 15 16
23 22 23 24 23 22 2 5 3 1 10 9 12 9 7 5 6 7 3 5 4 6 3 5 7 8 10 6 6 5 4 6 3 4 0 5 5 8 10 17 15 15 14 13 10
22 22 23 24 26 3 2 4 5 3 1 10 6 6 5 10 9 9 4 2 3 4 4 8 6 4 2 3 1 3 5 4 3 4 1 3 5 6 7 7 7 6 10 13 15
22 21 21 28 3 5 4 5 7 3 6 9 5 8 5 7 5 8 6 5 1 8 5 6 4 7 4 4 6 7 4 8 7 5 8 4 8 6 7 9 10 13 9 15 14
22 20 16 9 4 2 5 10 8 6 4 3 3 1 2 8 4 3 3 4 7 5 7 10 2 4 4 7 5 13 3 11 14 6 5 1 3 10 0 8 10 15 16 12 16
22 18 13 2 1 7 8 8 5 7 2 9 2 4 1 0 3 2 4 5 3 3 1 8 3 2 7 2 7 5 4 5 5 5 2 7 10 8 6 17 6 13 17 13 12
22 15 4 2 3 6 6 5 7 4 5 10 7 9 0 5 5 1 4 2 4 3 3 6 6 4 4 5 2 3 7 4 3 1 6 4 7 15 6 8 11 17 14 9 10
25 10 8 5 3 6 4 7 4 3 4 4 5 7 6 6 2 4 6 3 1 4 3 5 10 7 4 8 8 6 9 7 5 4 5 6 7 10 5 8 6 3 7 7 8
18 1 1 5 6 0 7 5 6 4 3 8 8 8 8 7 1 7 2 5 7 11 11 7 8 7 4 4 7 1 4 5 7 4 2 3 8 9 1 7 4 6 6 7 8
3 3 4 3 6 5 7 3 4 5 5 3 3 3 7 8 9 7 6 1 5 10 1 8 4 7 7 4 2 8 6 2 3 3 5 5 5 7 6 10 8 8 11 11 7
3 5 4 3 3 6 4 6 6 8 6 3 2 3 2 2 2 5 4 6 5 8 6 6 6 9 2 5 7 3 1 3 6 6 7 4 9 10 11 14 14 14 12 11 12
2 4 3 2 6 1 0 4 6 7 2 6 4 2 2 1 3 6 6 4 11 8 7 4 5 7 14 5 4 6 8 8 7 6 3 3 10 5 12 7 6 8 8 8 12
3 2 3 5 3 4 7 6 3 4 7 7 7 6 2 4 4 4 5 9 10 9 6 3 2 2 11 5 3 5 5 5 4 4 9 7 10 5 6 5 6 8 7 8 13
3 3 6 5 1 1 5 7 8 7 2 4 3 4 6 6 5 3 5 5 11 6 10 3 1 4 8 10 4 5 4 5 6 4 4 8 10 7 8 8 8 7 6 10 14
5 0 2 4 4 4 1 5 5 7 6 10 6 4 2 4 7 4 3 6 9 3 9 4 2 5 7 6 5 5 5 6 6 6 6 6 9 11 12 14 17 10 9 13 14
4 3 5 2 4 5 4 5 6 7 3 6 5 9 2 1 3 7 2 2 4 7 6 6 4 5 7 3 6 6 6 6 4 4 5 3 8 6 5 7 6 12 17 17 17
3 2 4 3 4 2 1 5 3 6 4 1 5 2 5 3 9 13 8 7 7 3 4 1 2 4 7 3 6 3 8 5 5 8 3 4 6 8 8 8 13 11 15 17 19
Wind_Direction
351 351 348 346 343 341 339 338 339 336 334 331 328 325 326 327 317 160 237 211 161 164 125 158 229 198 166 230 221 169 65 206 143 163 143 149 136 190 91 127 109 105 134 147 162
348 346 345 343 341 339 336 334 336 334 333 330 326 324 327 335 330 278 248 165 143 161 155 182 192 157 207 223 189 139 124 211 188 148 149 164 158 134 124 120 60 79 103 138 153
345 344 343 340 338 336 333 331 331 332 330 328 325 322 325 329 336 256 247 144 146 169 183 185 227 176 241 143 37 147 169 170 129 145 140 142 133 100 137 201 212 154 147 155 163
343 341 339 337 334 333 330 328 326 328 327 324 323 322 323 313 228 319 204 127 146 169 116 322 17 349 36 35 354 98 76 134 140 142 106 122 121 128 79 207 129 150 153 159 173
340 337 335 333 332 330 328 324 321 321 323 321 321 325 346 360 254 159 128 120 126 136 153 257 50 309 355 70 15 35 39 74 95 113 112 94 140 135 120 122 125 140 160 174 184
337 335 334 332 331 328 325 319 316 315 318 316 314 317 359 291 279 138 127 137 164 165 191 173 160 237 264 10 5 62 73 90 87 90 63 107 137 105 143 133 143 161 178 187 195
338 336 334 332 329 326 320 314 312 312 310 305 298 291 84 238 39 327 227 215 168 169 245 185 161 48 293 138 183 86 64 33 16 106 95 112 55 134 152 152 159 175 186 195 205
336 335 332 330 327 322 316 311 309 307 300 280 241 181 250 256 288 301 188 275 209 205 228 168 178 217 28 84 40 77 70 360 280 227 321 100 45 139 163 159 180 184 196 203 209
333 332 329 325 323 319 314 310 307 303 209 137 127 128 268 306 302 288 170 210 291 127 258 245 101 73 42 77 43 357 231 230 238 305 137 108 152 166 178 184 191 197 199 206 209
332 329 327 325 323 322 317 304 283 300 159 194 260 13 294 334 309 302 233 132 203 9 358 72 62 74 30 77 220 196 191 265 247 216 151 114 162 169 188 196 205 203 214 207 205
331 328 327 325 324 324 336 1 15 351 75 219 201 252 287 297 307 313 287 94 84 68 179 353 114 171 222 198 218 194 172 224 271 167 146 188 156 177 193 210 214 211 213 205 212
329 327 325 324 321 322 297 55 110 252 299 248 238 243 253 84 308 310 325 129 131 192 132 11 234 218 157 202 232 210 189 245 309 108 117 176 206 208 195 211 211 212 215 216 207
327 327 326 323 318 331 313 237 330 332 246 294 237 232 194 143 205 265 134 139 144 149 180 187 216 104 190 124 277 262 230 209 198 137 53 110 283 219 233 229 231 237 231 225 202
325 327 330 326 9 330 289 292 307 215 46 281 283 275 175 139 257 219 194 147 67 195 174 241 222 231 274 269 140 285 212 252 180 150 220 151 269 264 205 234 230 223 218 218 203
324 325 331 336 289 310 300 328 315 57 28 322 273 308 343 159 176 262 172 73 174 188 107 244 257 195 170 227 151 248 228 251 196 150 107 204 70 271 349 252 222 221 225 219 195
323 322 328 134 245 248 308 312 46 41 306 338 358 344 125 281 310 35 82 64 150 167 17 242 288 177 216 235 178 263 291 15 37 117 108 228 176 280 197 227 215 226 222 206 205
324 311 275 279 237 319 309 40 42 110 330 342 321 344 59 345 347 165 275 73 160 114 310 310 257 250 209 301 94 112 62 314 8 77 208 224 136 238 258 227 201 215 213 183 194
325 321 204 223 289 348 41 50 69 273 282 295 311 331 78 8 352 317 146 246 187 108 110 185 302 181 195 182 210 199 159 160 226 217 244 154 230 250 192 256 224 246 214 157 195
323 347 161 262 194 98 68 64 211 220 275 324 335 50 352 341 347 9 253 211 219 171 175 162 267 287 182 161 120 289 207 203 105 10 77 242 294 308 226 246 212 188 175 201 200
2 355 302 125 158 66 73 233 242 224 338 321 342 54 14 330 11 8 356 226 324 195 265 228 257 214 259 143 245 157 179 329 2 177 235 282 271 239 271 222 207 198 213 220 181
30 50 297 184 63 44 106 234 268 247 208 225 297 53 21 0 283 298 359 318 10 318 187 150 135 276 44 176 224 295 229 78 130 137 174 207 260 217 224 232 194 205 194 189 194
62 50 313 9 40 31 268 218 279 292 4 248 207 148 136 49 352 0 21 275 348 312 331 224 171 208 222 239 201 167 208 155 132 259 183 168 269 230 222 245 166 207 185 187 187
68 269 317 82 58 331 300 290 269 305 334 343 3 39 340 35 36 37 346 293 346 353 350 304 296 343 324 352 343 193 191 160 138 77 197 154 257 316 296 188 176 180 204 175 166
71 33 329 42 90 42 326 316 333 322 32 36 46 63 43 29 351 314 325 316 331 328 331 130 123 172 211 212 180 161 213 171 124 112 199 215 246 256 258 218 192 184 190 156 169
25 358 171 313 336 350 310 344 338 3 356 18 27 73 38 8 338 333 292 312 315 302 356 56 45 340 294 263 272 185 206 168 179 191 163 258 201 239 240 195 206 161 151 163 169
85 46 356 295 305 333 357 8 14 325 7 336 17 323 164 157 241 275 278 271 238 326 350 350 308 11 298 339 240 269 226 215 187 164 247 256 265 255 331 107 150 190 168 178 178
333 3 102 292 342 42 315 319 329 338 305 335 307 333 334 294 297 250 209 243 230 257 282 132 44 32 284 330 256 291 228 185 99 40 334 16 280 315 272 202 194 187 191 192 183